Location: Trebic
(49.2170°N, 15.8830°E)
Time: 06:16:37
(UTC+02:00)

Transit 4A - Pass Details

Date: 02 September 2019
Orbit: 865 x 980 km, 66.8° (Epoch: 18 September)

Event Time Altitude Azimuth Distance (km) Brightness Sun altitude
Rises 19:52:24 0° 282° (WNW) 3,679 14.2 -3.1°
Reaches altitude 10° 19:55:54 10° 301° (WNW) 2,725 12.0 -3.7°
Maximum altitude 20:00:11 18° 343° (NNW) 2,166 10.3 -4.3°
Drops below altitude 10° 20:04:25 10° 26° (NNE) 2,690 10.3 -5.0°
Sets 20:07:51 0° 44° (NE) 3,615 10.7 -5.5°
